Flag for U.S.A. Weather past 2 weeks in Sioux Falls, South Dakota, U.S.A.

Now
70 °F

Light rain. Mostly cloudy.


Feels Like: 70 °F
Forecast: 64 / 81 °F
Wind: 7 mph from East

Location: Foss Field

Current Time: Aug 20, 2014 at 6:34:15 AM

Latest Report: Aug 20, 2014 at 6:03 AM


Visibility: 10 mi

Pressure: 29.80 "Hg

Humidity: 81%

Dew point: 64 °F

Location of Sioux FallsLocation

Historic Weather in Sioux Falls — Graph

°F

Sioux Falls temperature yesterday

Maximum temperature yesterday: 84 °F (at 3:56 PM)
Minimum temperature yesterday: 61 °F (at 4:56 AM)
Average temperature yesterday: 74 °F

Past Weeks' High & Low Weather Summary

 TemperatureHumidityPressure
High86 °F (Aug 18, 3:56 PM)97% (Aug 16, 1:56 AM)30.17 "Hg (Aug 16, 1:56 AM)
Low52 °F (Aug 12, 6:56 AM)32% (Aug 12, 5:56 PM)29.71 "Hg (Aug 18, 5:56 PM)
Average71 °F77%29.98 "Hg
* Reported Aug 5 4:56 AM — Aug 20 4:56 AM, Sioux Falls, Weather by CustomWeather, © 2014

Note: Actual official high and low records may vary slightly from our data, if they occured in-between our weather recording intervals... More about our weather records

Advertising

Sioux Falls weather history for previous 24 hours

 ConditionsComfort  
Time TempWeatherWind HumidityBarometerVisibility
4:56 AM
Aug 20
68 °FPassing clouds.No wind87%29.78 "Hg10 mi
3:56 AM68 °FClear.3 mph84%29.76 "Hg10 mi
2:56 AM68 °FClear.No wind84%29.76 "Hg10 mi
1:56 AM67 °FClear.5 mph87%29.77 "Hg10 mi
12:56 AM67 °FClear.No wind87%29.79 "Hg10 mi
11:56 PM
Aug 19
71 °FPassing clouds.No wind76%29.78 "Hg10 mi
10:56 PM73 °FPassing clouds.3 mph71%29.79 "Hg10 mi
9:56 PM74 °FPassing clouds.No wind69%29.79 "Hg10 mi
8:56 PM76 °FScattered clouds.3 mph62%29.78 "Hg10 mi
7:56 PM77 °FScattered clouds.No wind64%29.76 "Hg10 mi
6:56 PM83 °FPassing clouds.5 mph50%29.76 "Hg10 mi
5:56 PM84 °FPassing clouds.5 mph45%29.76 "Hg10 mi
4:56 PM84 °FPassing clouds.3 mph45%29.77 "Hg10 mi
3:56 PM84 °FScattered clouds.No wind46%29.78 "Hg10 mi
2:56 PM83 °FScattered clouds.6 mph50%29.78 "Hg10 mi
1:56 PM83 °FPassing clouds.8 mph50%29.79 "Hg10 mi
12:56 PM82 °FPassing clouds.5 mph48%29.80 "Hg10 mi
11:56 AM80 °FPassing clouds.5 mph54%29.80 "Hg10 mi
10:56 AM79 °FSunny.6 mph60%29.80 "Hg10 mi
9:56 AM76 °FSunny.7 mph64%29.80 "Hg10 mi
8:56 AM71 °FSunny.3 mph76%29.79 "Hg10 mi
7:56 AM67 °FSunny.No wind85%29.78 "Hg10 mi
6:56 AM62 °FClear.5 mph93%29.77 "Hg9 mi
Weather by CustomWeather, © 2014

See weather overviewHow to use our weather pages